GSAT0211 (GALILEO 14)

Last updated on Mon Sep 15 2025 00:02:34 GMT+0000 (Coordinated Universal Time)

1 41549U 16030A 25256.51478048 .00000037 00000+0 00000+0 0 9998 2 41549 55.1876 229.3025 0003386 323.3756 36.5752 1.70473106 57952
UTC large
Height (km)
Speed (km/s)
/
Latitude / Longitude
Inclination (degrees)
Orbital Period (minutes)
Azimuth
Elevation
Range (km)
Doppler Factor

Next 0 passes for location: London (51.5072 / 0.1276)

Sorry there are no passes over London.